Home   Weather   Thompson   Past weeks

Flag for Canada Past Weather in Thompson, Manitoba, Canada — Yesterday and Last 2 Weeks

Now
16 °F

Light snow. Low clouds.


Feels Like: 10 °F
Forecast: 14 / 22 °F
Wind: 3 mph from South

Location: Thompson

Current Time: Dec 2, 2016 at 10:42:28 pm

Latest Report: Dec 2, 2016 at 10:00 pm


Visibility: 5 mi

Pressure: 30.22 "Hg

Humidity: 93%

Dew Point: 14 °F

Location of ThompsonLocation

Past Weather in Thompson — Graph

°F

Thompson Temperature Yesterday

Maximum temperature yesterday: 21 °F (at 12:00 am)
Minimum temperature yesterday: 18 °F (at 10:00 pm)
Average temperature yesterday: 20 °F

High & Low Weather Summary for the Past Weeks

 TemperatureHumidityPressure
High32 °F (Nov 26, 6:00 pm)100% (Nov 24, 9:00 pm)30.49 "Hg (Nov 24, 9:00 pm)
Low-2 °F (Nov 20, 7:00 am)67% (Nov 17, 10:00 pm)29.62 "Hg (Nov 28, 8:00 am)
Average21 °F87%30.13 "Hg
* Reported Nov 17 9:00 pm — Dec 2 9:00 pm, Thompson, Weather by CustomWeather, © 2016

Note: Actual official high and low records may vary slightly from our data, if they occured in-between our weather recording intervals... More about our weather records

Advertising

Thompson Weather History for the Previous 24 Hours

Scroll right to see more
 ConditionsComfort  
Time TempWeatherWind HumidityBarometerVisibility
9:00 pm
Fri, Dec 2
16 °FLight snow. Low clouds.2 mph93%30.23 "Hg10 mi
8:00 pm16 °FLight snow. Overcast.3 mph93%30.24 "Hg10 mi
7:00 pm16 °FLight snow. Low clouds.3 mph93%30.26 "Hg10 mi
6:00 pm16 °FLight snow. Passing clouds.3 mph86%30.27 "Hg6 mi
5:00 pm16 °FLight snow. Passing clouds.5 mph86%30.27 "Hg5 mi
4:00 pm16 °FLight snow. Overcast.2 mph86%30.27 "Hg8 mi
3:00 pm18 °FLight snow. Mostly cloudy.3 mph86%30.27 "Hg6 mi
2:00 pm18 °FLight snow. Low clouds.3 mph86%30.27 "Hg5 mi
1:00 pm18 °FLight snow. Low clouds.5 mph86%30.28 "Hg5 mi
12:57 pm18 °FLight snow. Low clouds.5 mph86%30.28 "Hg5 mi
12:00 pm18 °FSnow flurries. Low clouds.3 mph86%30.28 "Hg5 mi
11:00 am16 °FSnow flurries. Low clouds.3 mph93%30.29 "Hg5 mi
10:00 am18 °FSnow flurries. Low clouds.2 mph86%30.28 "Hg5 mi
9:00 am18 °FSnow flurries. Low clouds.No wind86%30.28 "Hg5 mi
8:00 am16 °FSnow flurries. Low clouds.2 mph93%30.27 "Hg5 mi
7:00 am16 °FSnow flurries. Low clouds.2 mph93%30.28 "Hg5 mi
6:00 am16 °FSnow flurries. Low clouds.3 mph93%30.27 "Hg6 mi
5:00 am16 °FSnow flurries. Low clouds.3 mph93%30.26 "Hg6 mi
4:00 am16 °FLight snow. Low clouds.2 mph93%30.26 "Hg8 mi
3:00 am18 °FLight snow. Low clouds.No wind86%30.25 "Hg8 mi
2:00 am18 °FLight snow. Low clouds.2 mph86%30.23 "Hg8 mi
1:00 am18 °FLight snow. Low clouds.3 mph93%30.22 "Hg8 mi
12:00 am18 °FLight snow. Low clouds.2 mph93%30.21 "Hg6 mi
11:00 pm
Thu, Dec 1
18 °FLight snow. Low clouds.2 mph93%30.20 "Hg6 mi
10:00 pm18 °FLow clouds.6 mph93%30.18 "Hg15 mi
Weather by CustomWeather, © 2016

See weather overviewHow to use our weather pages